When you browse on this site, cookies collect data to enhance your experience and personalize the content and advertising you see.
Visit our Privacy Policy to learn more. By continuing to use the site, you agree to this use of cookies and data.
  • In Latvia
  • List of Countries
  • For 7 days
  • Water Temperature
  • Satellite Maps
  • Weather Map
  • Weather Widgets
  • user-avatar
    Login

    Hourly Weather Shigony

    Today, 16 July, Tuesday

    Time Temperature Precipitation Wind Pressure Humidity
    00:00 +15°C° 0 mm 2 mps 751 mmHg 88%
    01:00 +15°C° 0 mm 2 mps 751 mmHg 88%
    02:00 +14°C° 0 mm 2 mps 751 mmHg 89%
    03:00 +14°C° 0 mm 2 mps 752 mmHg 89%
    04:00 +15°C° 0 mm 2 mps 752 mmHg 86%
    05:00 +16°C° 0 mm 2 mps 752 mmHg 82%
    06:00 +17°C° 0 mm 2 mps 753 mmHg 79%
    07:00 +18°C° 0 mm 2 mps 753 mmHg 73%
    08:00 +20°C° 0 mm 2 mps 753 mmHg 67%
    09:00 +23°C° 0 mm 2 mps 753 mmHg 59%
    10:00 +24°C° 0 mm 2 mps 753 mmHg 55%
    11:00 +24°C° 0 mm 1 mps 753 mmHg 52%
    12:00 +25°C° 0 mm 1 mps 753 mmHg 48%
    13:00 +25°C° 0 mm 1 mps 753 mmHg 49%
    14:00 +25°C° 0 mm 2 mps 753 mmHg 50%
    15:00 +25°C° 0 mm 2 mps 753 mmHg 51%
    16:00 +25°C° 0 mm 2 mps 753 mmHg 57%
    17:00 +24°C° 0 mm 2 mps 753 mmHg 63%
    18:00 +23°C° 0 mm 2 mps 753 mmHg 69%
    19:00 +21°C° 0 mm 2 mps 753 mmHg 70%
    20:00 +21°C° 0 mm 2 mps 753 mmHg 70%
    21:00 +20°C° 0 mm 2 mps 753 mmHg 71%
    22:00 +19°C° 0.2 mm 2 mps 753 mmHg 78%
    23:00 +19°C° 0.2 mm 1 mps 753 mmHg 85%

    Tomorrow, 17 July, Wednesday

    Time Temperature Precipitation Wind Pressure Humidity
    00:00 +19°C° 0.2 mm 1 mps 753 mmHg 92%
    01:00 +18°C° 1.9 mm 2 mps 752 mmHg 94%
    02:00 +17°C° 1.9 mm 3 mps 752 mmHg 95%
    03:00 +17°C° 1.9 mm 4 mps 752 mmHg 97%
    04:00 +17°C° 1.1 mm 4 mps 752 mmHg 95%
    05:00 +17°C° 1.1 mm 4 mps 752 mmHg 94%
    06:00 +18°C° 1.1 mm 4 mps 752 mmHg 93%
    07:00 +18°C° 0.5 mm 4 mps 751 mmHg 92%
    08:00 +18°C° 0.5 mm 4 mps 751 mmHg 92%
    09:00 +19°C° 0.5 mm 3 mps 751 mmHg 91%
    10:00 +20°C° 0.2 mm 4 mps 751 mmHg 86%
    11:00 +22°C° 0.2 mm 5 mps 750 mmHg 81%
    12:00 +23°C° 0.2 mm 5 mps 750 mmHg 76%
    13:00 +24°C° 0.7 mm 6 mps 750 mmHg 75%
    14:00 +24°C° 0.7 mm 6 mps 749 mmHg 74%
    15:00 +26°C° 0.7 mm 7 mps 749 mmHg 73%
    16:00 +24°C° 0 mm 6 mps 748 mmHg 74%
    17:00 +25°C° 0 mm 5 mps 748 mmHg 75%
    18:00 +25°C° 0 mm 5 mps 747 mmHg 76%
    19:00 +22°C° 0.4 mm 5 mps 747 mmHg 81%
    20:00 +21°C° 0.4 mm 4 mps 747 mmHg 85%
    21:00 +20°C° 0.4 mm 4 mps 747 mmHg 90%
    22:00 +19°C° 0.1 mm 4 mps 747 mmHg 91%
    23:00 +19°C° 0.1 mm 3 mps 747 mmHg 92%

    Day after tomorrow, 18 July, Thursday

    Time Temperature Precipitation Wind Pressure Humidity
    00:00 +18°C° 0.1 mm 3 mps 746 mmHg 93%
    01:00 +18°C° 0 mm 3 mps 747 mmHg 93%
    02:00 +18°C° 0 mm 2 mps 747 mmHg 93%
    03:00 +18°C° 0 mm 2 mps 747 mmHg 93%
    04:00 +18°C° 0 mm 2 mps 747 mmHg 92%
    05:00 +19°C° 0 mm 2 mps 747 mmHg 91%
    06:00 +20°C° 0 mm 3 mps 747 mmHg 90%
    07:00 +21°C° 0 mm 3 mps 747 mmHg 85%
    08:00 +24°C° 0 mm 3 mps 747 mmHg 80%
    09:00 +25°C° 0 mm 3 mps 748 mmHg 75%
    10:00 +26°C° 0 mm 3 mps 748 mmHg 70%
    11:00 +27°C° 0 mm 3 mps 748 mmHg 66%
    12:00 +28°C° 0 mm 3 mps 748 mmHg 62%
    13:00 +28°C° 0 mm 3 mps 748 mmHg 61%
    14:00 +28°C° 0 mm 3 mps 748 mmHg 61%
    15:00 +28°C° 0 mm 3 mps 748 mmHg 61%
    16:00 +28°C° 0 mm 3 mps 748 mmHg 64%
    17:00 +28°C° 0 mm 2 mps 749 mmHg 67%
    18:00 +27°C° 0 mm 2 mps 749 mmHg 70%
    19:00 +25°C° 0 mm 2 mps 749 mmHg 74%
    20:00 +24°C° 0 mm 2 mps 749 mmHg 78%
    21:00 +21°C° 0 mm 2 mps 750 mmHg 82%
    22:00 +20°C° 0 mm 2 mps 750 mmHg 84%
    23:00 +20°C° 0 mm 2 mps 750 mmHg 86%

    19 July, Friday

    Time Temperature Precipitation Wind Pressure Humidity
    00:00 +19°C° 0 mm 2 mps 750 mmHg 88%
    01:00 +19°C° 0 mm 2 mps 750 mmHg 89%
    02:00 +18°C° 0 mm 2 mps 750 mmHg 90%
    03:00 +18°C° 0 mm 2 mps 751 mmHg 91%
    04:00 +19°C° 0 mm 2 mps 751 mmHg 89%
    05:00 +20°C° 0 mm 2 mps 751 mmHg 86%
    06:00 +20°C° 0 mm 2 mps 751 mmHg 83%
    07:00 +23°C° 0 mm 2 mps 751 mmHg 77%
    08:00 +24°C° 0 mm 2 mps 751 mmHg 71%
    09:00 +25°C° 0 mm 2 mps 752 mmHg 65%
    10:00 +26°C° 0 mm 2 mps 752 mmHg 61%
    11:00 +27°C° 0 mm 2 mps 752 mmHg 57%
    12:00 +28°C° 0 mm 2 mps 752 mmHg 54%
    13:00 +28°C° 0 mm 2 mps 752 mmHg 54%
    14:00 +28°C° 0 mm 2 mps 752 mmHg 54%
    15:00 +28°C° 0 mm 2 mps 752 mmHg 54%
    16:00 +28°C° 0 mm 2 mps 752 mmHg 58%
    17:00 +27°C° 0 mm 2 mps 752 mmHg 61%
    18:00 +26°C° 0 mm 3 mps 752 mmHg 65%
    19:00 +25°C° 0 mm 2 mps 752 mmHg 67%
    20:00 +23°C° 0 mm 2 mps 752 mmHg 69%
    21:00 +20°C° 0 mm 2 mps 752 mmHg 72%
    22:00 +19°C° 0 mm 2 mps 752 mmHg 73%
    23:00 +19°C° 0 mm 2 mps 753 mmHg 74%

    20 July, Saturday

    Time Temperature Precipitation Wind Pressure Humidity
    00:00 +18°C° 0 mm 2 mps 753 mmHg 76%
    01:00 +18°C° 0 mm 2 mps 753 mmHg 78%
    02:00 +17°C° 0 mm 2 mps 753 mmHg 80%
    03:00 +18°C° 0 mm 1 mps 753 mmHg 82%
    04:00 +19°C° 0 mm 1 mps 753 mmHg 81%
    05:00 +20°C° 0 mm 1 mps 753 mmHg 80%
    06:00 +21°C° 0 mm 1 mps 753 mmHg 79%
    07:00 +21°C° 0 mm 2 mps 753 mmHg 74%
    08:00 +24°C° 0 mm 2 mps 753 mmHg 69%
    09:00 +25°C° 0 mm 3 mps 753 mmHg 64%
    10:00 +26°C° 0 mm 3 mps 753 mmHg 61%
    11:00 +26°C° 0 mm 4 mps 753 mmHg 59%
    12:00 +27°C° 0 mm 4 mps 753 mmHg 57%
    13:00 +27°C° 0.1 mm 5 mps 753 mmHg 56%
    14:00 +27°C° 0.1 mm 5 mps 753 mmHg 55%
    15:00 +27°C° 0.1 mm 5 mps 753 mmHg 54%
    16:00 +27°C° 0.1 mm 4 mps 753 mmHg 59%
    17:00 +26°C° 0.1 mm 4 mps 753 mmHg 63%
    18:00 +25°C° 0.1 mm 3 mps 754 mmHg 68%
    19:00 +22°C° 0 mm 3 mps 754 mmHg 71%
    20:00 +21°C° 0 mm 3 mps 754 mmHg 74%
    21:00 +19°C° 0 mm 2 mps 754 mmHg 77%
    22:00 +18°C° 0 mm 2 mps 754 mmHg 78%
    23:00 +18°C° 0 mm 2 mps 755 mmHg 80%

    21 July, Sunday

    Time Temperature Precipitation Wind Pressure Humidity
    00:00 +17°C° 0 mm 2 mps 755 mmHg 81%
    01:00 +17°C° 0 mm 3 mps 755 mmHg 84%
    02:00 +16°C° 0 mm 3 mps 755 mmHg 86%
    03:00 +16°C° 0 mm 3 mps 755 mmHg 88%
    04:00 +17°C° 0 mm 3 mps 755 mmHg 85%
    05:00 +18°C° 0 mm 3 mps 755 mmHg 83%
    06:00 +18°C° 0 mm 3 mps 755 mmHg 80%
    07:00 +20°C° 0 mm 4 mps 755 mmHg 74%
    08:00 +22°C° 0 mm 4 mps 755 mmHg 69%
    09:00 +23°C° 0 mm 4 mps 754 mmHg 63%
    10:00 +25°C° 0 mm 5 mps 754 mmHg 59%
    11:00 +26°C° 0 mm 5 mps 754 mmHg 56%
    12:00 +27°C° 0 mm 5 mps 754 mmHg 52%
    13:00 +27°C° 0 mm 6 mps 754 mmHg 52%
    14:00 +27°C° 0 mm 6 mps 754 mmHg 52%
    15:00 +27°C° 0 mm 6 mps 754 mmHg 52%
    16:00 +27°C° 0.1 mm 5 mps 754 mmHg 58%
    17:00 +26°C° 0.1 mm 4 mps 753 mmHg 64%
    18:00 +25°C° 0.1 mm 3 mps 753 mmHg 70%
    19:00 +22°C° 0 mm 3 mps 753 mmHg 73%
    20:00 +21°C° 0 mm 3 mps 753 mmHg 77%
    21:00 +19°C° 0 mm 3 mps 753 mmHg 80%
    22:00 +19°C° 0 mm 3 mps 753 mmHg 82%
    23:00 +18°C° 0 mm 2 mps 753 mmHg 85%
    Show more